Regional Weather Roundup
Issued by NWS

Home | Current Version | Previous Version | Text Only | Print | Product List | Glossary On
Versions: 1 2 3 4 5 6 7 8 9 10 11 12 13 14 15 16 17 18 19 20 21 22 23 24 25 26 27
000
ASUS45 KBOU 200510
RWRCO

WEATHER ROUNDUP FOR COLORADO
NATIONAL WEATHER SERVICE DENVER/BOULDER CO
1100 PM MDT SAT MAY 19 2018

NOTE: "FAIR" INDICATES FEW OR NO CLOUDS BELOW 12000 FEET WITH NO
SIGNIFICANT WEATHER AND/OR OBSTRUCTIONS TO VISIBILITY.

COZ001>005-013-030-031-200600-
...NORTHWEST COLORADO...

CITY           SKY/WX    TMP DP  RH WIND       PRES   REMARKS
CRAIG          FAIR      48  40  73 N7        30.13S
HAYDEN         FAIR      44  41  89 E9        30.17R
MEEKER         FAIR      47  39  74 NE5       30.13R
RANGELY        FAIR      53  43  68 E3        30.07R
RABBIT EARS PA FAIR      32  32 100 SE3       30.30R
STEAMBOAT SPGS FAIR      42  42 100 CALM      30.18R
WALDEN         FAIR      37  32  81 SE7       30.23F
$$

COZ006>008-011-200600-
...WEST CENTRAL VALLEYS...

CITY           SKY/WX    TMP DP  RH WIND       PRES   REMARKS
GRAND JUNCTION FAIR      66  36  32 NE15G26   29.98R
MONTROSE       FAIR      59  36  42 E14       30.07R
EAGLE          FAIR      44  38  79 NE6       30.19R
RIFLE          FAIR      52  43  71 SE3       30.09R
DELTA          FAIR      63  36  36 N8        30.04R
NUCLA          FAIR      59  28  31 SE8       30.07R
$$

COZ017>023-064>068-200600-
...SOUTHWEST COLORADO...

CITY           SKY/WX    TMP DP  RH WIND       PRES   REMARKS
DURANGO        FAIR      51  29  42 CALM      30.06R
CORTEZ         FAIR      51  21  30 NE9       30.02R
PAGOSA SPRINGS FAIR      48  21  35 CALM      30.14R
TELLURIDE      FAIR      45  30  56 SE8       30.24R
WOLF CREEK PAS FAIR      36  21  55 CALM      30.42S
$$

COZ009-010-012-014-032>034-037-058>063-200600-
...CENTRAL COLORADO...

CITY           SKY/WX    TMP DP  RH WIND       PRES   REMARKS
ASPEN          FAIR      49  33  54 SE8       30.18R
BUENA VISTA    DRIZZLE   44  39  85 NE3       30.28R
COPPER MTN     FAIR      36  30  80 S13       30.38R
BERTHOUD PASS  FAIR      27  16  63 S12G17    30.39R HAZE    WCI  16
COTTONWOOD PAS CLOUDY    43  41  93 CALM      30.34R FOG
GUNNISON       NOT AVBL
GRANBY         FAIR      36  35  96 S3        30.25R
KREMMLING      FAIR      46  36  66 E3        30.22R
LEADVILLE      CLOUDY    35  34  96 VRB6      30.31R WCI  30
MONARCH PASS   FOG       32  32 100 MISG      30.48S VSB<1/4
SALIDA         CLOUDY    48  41  75 E6G17     30.34R
SUNLIGHT       MOCLDY    34  30  86 E6        30.35R WCI  29
WILKERSON PASS FOG       32  32 100 SW3       30.40S VSB 1/2
$$

COZ069>075-200600-
...SAN LUIS VALLEY/SANGRE DE CRISTO MOUNTAINS...

CITY           SKY/WX    TMP DP  RH WIND       PRES   REMARKS
ALAMOSA        FAIR      45  34  65 E7        30.19R
DEL NORTE      FAIR      46  32  58 E6        30.21R
LA VETA PASS   LGT RAIN  34  34 100 N21G31    30.45R VSB 3/4 WCI  22
SAGUACHE       NOT AVBL
$$

COZ035-036-038>040-200600-
...NORTHERN COLORADO FRONT RANGE...

CITY           SKY/WX    TMP DP  RH WIND       PRES   REMARKS
DENVER INTL AP MOCLDY    44  42  93 NE9       30.28R
AURORA         MOCLDY    40  40  99 CALM      30.29R
FRONT RANGE AP CLOUDY    46  44  95 N7        30.28S FOG
ERIE MUNI ARPT CLOUDY    46  41  82 E5        30.33R
BOULDER MUN AP CLOUDY    45  43  93 CALM      30.28R
CENTENNIAL     CLOUDY    43  40  89 E5        30.28S
BROOMFIELD     CLOUDY    45  41  87 E5        30.28S
FORT COLLINS   LGT RAIN  45  42  89 E10       30.28R
LONGMONT       CLOUDY    48  44  85 CALM      30.30R
$$

COZ041-046-047-076>085-087-088-200600-
...PIKES PEAK/PALMER DIVIDE AND SOUTHERN FOOTHILLS...

CITY           SKY/WX    TMP DP  RH WIND       PRES   REMARKS
COLO. SPRINGS  MOCLDY    45  38  76 N16       30.26F
A. F. ACADEMY  LGT RAIN  42  40  91 N15       30.26F
SCHRIEVER AFB  NOT AVBL
CHEYENNE MTN   CLOUDY    41  38  87 NW7       30.22F
ELLICOTT         N/A    N/A N/A N/A NE9       30.26R
FALCON         DRIZZLE   41  39  91 N12G18    30.28F
FORT CARSON    CLOUDY    46  38  76 N5        30.25S
LIMON          CLOUDY    40  40 100 N9        30.27F FOG
MONUMENT HILL  CLOUDY    37  36  93 NW3       30.31S
CANON CITY     CLOUDY    50  45  81 SE13G18   30.27R
WALSENBURG     CLOUDY    46  45  93 NE9       30.30R
TRINIDAD       CLOUDY    47  44  90 NE7       30.29R
$$

COZ042>045-048>051-090-091-200600-
...NORTHEAST COLORADO...

CITY           SKY/WX    TMP DP  RH WIND       PRES   REMARKS
GREELEY ARPT   CLOUDY    45  41  86 E6        30.29R
AKRON          LGT RAIN  41  41 100 N9        30.27S
BURLINGTON     CLOUDY    45  43  93 N13       30.25R
WRAY           CLOUDY    45  45 100 N16       30.23F FOG
YUMA           CLOUDY    41  41 100 N12G17    30.26S FOG
STERLING       CLOUDY    43  41  93 N8        30.27R
HOLYOKE        CLOUDY    46  43  87 NW10      30.25S
FORT MORGAN    CLOUDY    42  39  90 NE13      30.28S
$$

COZ086-089-092>099-200600-
...SOUTHEAST COLORADO...

CITY           SKY/WX    TMP DP  RH WIND       PRES   REMARKS
PUEBLO         CLOUDY    52  43  71 E10       30.26R
LA JUNTA       CLOUDY    51  43  74 N8        30.26R
LAMAR          MOCLDY    49  42  77 N8        30.24R
SPRINGFIELD      N/A     47  46  97 N15       30.23S
$$




USA.gov is the U.S. government's official web portal to all federal, state and local government web resources and services.